This is the latest recevied weather packets stored in our database for station/object N5SRF. If no packets are shown the sender has not sent any weather packets the latest 10 day(s).
| Time | Temp. | Humidity | Pressure | Rain* | Wind** | Luminosity | Snow |
|---|---|---|---|---|---|---|---|
| 1777481343 | 27.78° C | 82% | 1017.3 hPa | 0 mm | - | 413 W/m² | - |
| 1777481039 | 27.78° C | 83% | 1017.2 hPa | 0 mm | - | 339 W/m² | - |
| 1777480736 | 27.78° C | 84% | 1017.2 hPa | 0 mm | - | 333 W/m² | - |
| 1777480433 | 27.78° C | 83% | 1017.4 hPa | 0 mm | - | 432 W/m² | - |
| 1777480129 | 28.33° C | 82% | 1017.4 hPa | 0 mm | - | 344 W/m² | - |
| 1777479825 | 28.33° C | 83% | 1017.4 hPa | 0 mm | - | 305 W/m² | - |
| 1777479522 | 27.78° C | 84% | 1017.4 hPa | 0 mm | - | 318 W/m² | - |
| 1777479219 | 27.78° C | 82% | 1017.5 hPa | 0 mm | - | 244 W/m² | - |
| 1777478916 | 27.22° C | 84% | 1017.5 hPa | 0 mm | - | 275 W/m² | - |
| 1777478612 | 27.22° C | 83% | 1017.5 hPa | 0 mm | - | 254 W/m² | - |
| 1777478310 | 27.22° C | 85% | 1017.6 hPa | 0 mm | - | 239 W/m² | - |
| 1777478006 | 26.67° C | 86% | 1017.5 hPa | 0 mm | - | 204 W/m² | - |
| 1777477701 | 26.67° C | 87% | 1017.6 hPa | 0 mm | - | 212 W/m² | - |
| 1777477398 | 26.67° C | 87% | 1017.3 hPa | 0 mm | - | 215 W/m² | - |
| 1777477095 | 26.67° C | 87% | 1017.4 hPa | 0 mm | - | 197 W/m² | - |
| 1777476792 | 26.11° C | 88% | 1017.2 hPa | 0 mm | - | 170 W/m² | - |
| 1777476489 | 26.11° C | 88% | 1017 hPa | 0 mm | - | 164 W/m² | - |
| 1777476186 | 26.11° C | 89% | 1016.8 hPa | 0 mm | - | 192 W/m² | - |
| 1777475881 | 26.11° C | 89% | 1017.1 hPa | 0 mm | - | 166 W/m² | - |
| 1777475577 | 26.11° C | 89% | 1017.1 hPa | 0 mm | - | 139 W/m² | - |
| 1777475274 | 26.11° C | 91% | 1017.3 hPa | 0 mm | - | 168 W/m² | - |
| 1777474969 | 26.11° C | 90% | 1017.2 hPa | 0 mm | - | 205 W/m² | - |
| 1777474665 | 25.56° C | 91% | 1017.2 hPa | 0 mm | - | 208 W/m² | - |
| 1777474362 | 25.56° C | 91% | 1017.2 hPa | 0 mm | - | 192 W/m² | - |
| 1777474058 | 25.56° C | 91% | 1016.9 hPa | 0 mm | - | 154 W/m² | - |
* Rain latest hour (hover to see other rain measurements)
** Current wind speed in m/s (hover to see current wind gust speed)